Location: Unspecified
(0.0000°N, 0.0000°E)
Time: 02:51:52
(UTC+00:00)

Transit 2A - All Passes

Search period start: 21 February 2017 00:00
Search period end: 03 March 2017 00:00
Orbit: 601 x 958 km, 66.7° (Epoch: 19 February)

Date Brightness Start Highest point End Pass type
(mag) Time Alt. Az. Time Alt. Az. Time Alt. Az.
21 Feb - 01:21:46 10° W 01:24:12 14° WSW 01:26:46 10° SW night (unlit)
21 Feb - 12:11:01 10° SSW 12:17:05 78° WNW 12:22:35 10° NNE daylight
21 Feb - 23:04:16 10° NNE 23:07:18 17° ENE 23:10:30 10° ESE night (unlit)
22 Feb - 00:46:22 10° WNW 00:50:09 24° WSW 00:54:14 10° SSW night (unlit)
22 Feb - 11:37:06 10° S 11:43:07 65° ESE 11:48:35 10° NNE daylight
23 Feb - 00:11:44 10° NW 00:16:07 41° WSW 00:20:58 10° S night (unlit)
23 Feb - 11:03:30 10° S 11:09:07 40° ESE 11:14:17 10° NE daylight
23 Feb - 12:48:39 10° WSW 12:51:57 15° WNW 12:55:08 10° NW daylight
23 Feb - 23:37:30 10° NNW 23:42:08 74° WSW 23:47:17 10° SSE night (unlit)
24 Feb - 10:30:16 10° SSE 10:35:04 25° ESE 10:39:34 10° ENE daylight
24 Feb - 12:13:15 10° SW 12:18:03 26° WNW 12:22:31 10° NNW daylight
24 Feb - 23:03:37 10° N 23:08:12 62° ENE 23:13:16 10° SSE night (unlit)
25 Feb - 09:57:43 10° SE 10:01:00 15° ESE 10:04:10 10° ENE daylight
25 Feb - 11:38:34 10° SW 11:44:09 42° WNW 11:49:16 10° N daylight
25 Feb - 22:30:04 10° N 22:34:17 34° ENE 22:38:53 10° SE night (unlit)
26 Feb - 00:15:24 10° W 00:17:21 12° WSW 00:19:23 10° SW night (unlit)
26 Feb - 11:04:16 10° SSW 11:10:14 69° WNW 11:15:38 10° NNE daylight
26 Feb - 21:56:59 10° NNE 22:00:24 20° ENE 22:04:02 10° ESE night (unlit)
26 Feb - 23:39:40 10° WNW 23:43:17 21° WSW 23:47:11 10° SSW night (unlit)
27 Feb - 10:30:16 10° SSW 10:36:17 73° ESE 10:41:43 10° NNE daylight
27 Feb - 21:25:08 10° NE 21:26:30 11° ENE 21:27:54 10° E night (unlit)
27 Feb - 23:04:54 10° NW 23:09:14 36° WSW 23:14:01 10° S night (unlit)
28 Feb - 09:56:35 10° S 10:02:17 44° ESE 10:07:29 10° NE daylight
28 Feb - 11:42:27 10° W 11:45:05 13° WNW 11:47:37 10° NW daylight
28 Feb - 22:30:36 10° NNW 22:35:15 64° WSW 22:40:25 10° SSE night (unlit)
01 Mar - 09:23:16 10° SSE 09:28:15 27° ESE 09:32:53 10° NE daylight
01 Mar - 11:06:44 10° WSW 11:11:11 22° WNW 11:15:20 10° NNW daylight
01 Mar - 21:56:38 10° NNW 22:01:18 72° ENE 22:06:29 10° SSE night (unlit)
02 Mar - 08:50:30 10° SSE 08:54:11 17° ESE 08:57:42 10° ENE daylight
02 Mar - 10:31:55 10° SW 10:37:17 37° WNW 10:42:13 10° N daylight
02 Mar - 21:22:59 10° N 21:27:23 40° ENE 21:32:12 10° SE night (unlit)
02 Mar - 23:09:18 10° W 23:10:30 11° WSW 23:11:43 10° SW night (unlit)
